AirNav   Everest Fuels
 
 856 users online  

0R5 David G Joyce Airport
Winnfield, Louisiana, USA

GOING TO WINNFIELD?


FAA INFORMATION EFFECTIVE 10 OCTOBER 2019

Location

FAA Identifier: 0R5
Lat/Long: 31-57-49.1840N 092-39-36.9380W
31-57.819733N 092-39.615633W
31.9636622,-92.6602606
(estimated)
Elevation: 146 ft. / 44.5 m (surveyed)
Variation: 02E (2010)
From city: 3 miles NW of WINNFIELD, LA
Time zone: UTC -5 (UTC -6 during Standard Time)
Zip code: 71483

Airport Operations

Airport use: Open to the public
Activation date: 09/1945
Control tower: no
ARTCC: HOUSTON CENTER
FSS: DE RIDDER FLIGHT SERVICE STATION
NOTAMs facility: DRI (NOTAM-D service available)
Attendance: UNATNDD
Wind indicator: yes
Segmented circle: no
Lights: DUSK-DAWN. MIRL RY 09/27 & REIL RYS 09 & 27 PRESET LOW INTST DUSK-DAWN; TO INCR INTST ACTVT - CTAF.
Beacon: white-green (lighted land airport)
ROTG BCN OBSCURED BY TREES SOUTH, WEST AND EAST. Operates sunset to sunrise.

Airport Communications

CTAF/UNICOM: 122.7
POLK APPROACH: 125.4
POLK DEPARTURE: 125.4

Nearby radio navigation aids

VOR radial/distance  VOR name  Freq  Var
SWBr122/1.0SAWMILL VOR/DME113.7502E

 
NDB name  Hdg/Dist  Freq  Var  ID
NATCHITOCHES045/28.140704EOOC --- --- -.-.
RUSTON182/38.936803EROQ .-. --- --.-

Airport Services

Parking: tiedowns
Airframe service: NONE
Powerplant service: NONE
Bottled oxygen: NONE
Bulk oxygen: NONE

Runway Information

Runway 9/27

Dimensions: 3002 x 100 ft. / 915 x 30 m
Surface: asphalt, in good condition
Weight bearing capacity: 
Single wheel: 4.0
Runway edge lights: medium intensity
RUNWAY 9  RUNWAY 27
Latitude: 31-57.817883N31-57.823033N
Longitude: 092-39.906417W092-39.325583W
Elevation: 146.0 ft.118.0 ft.
Traffic pattern: leftleft
Runway heading: 087 magnetic, 089 true267 magnetic, 269 true
Markings: nonprecision, in good conditionnonprecision, in good condition
Visual slope indicator: 2-light PAPI on left (3.00 degrees glide path)2-light PAPI on left (3.45 degrees glide path)
Runway end identifier lights: yesyes
Touchdown point: yes, no lightsyes, no lights
Obstructions: 74 ft. trees, 1775 ft. from runway, 434 ft. left of centerline, 21:1 slope to clear69 ft. trees, 938 ft. from runway, 238 ft. right of centerline, 10:1 slope to clear

Airport Ownership and Management from official FAA records

Ownership: Publicly-owned
Owner: CITY OF WINNFIELD
PO BOX 509
WINNFIELD, LA 71483
Phone 318-628-3939
Manager: AUNDRA BASS
PO BOX 509
WINNFIELD, LA 71483
Phone (318) 628-3939

Airport Operational Statistics

Aircraft based on the field: 4
Single engine airplanes: 4
    
Aircraft operations: avg 86/week *
56% transient general aviation
44% local general aviation
* for 12-month period ending 19 December 2018

Additional Remarks

FOR CD CTC POLK APCH AT 337-531-2352.

Instrument Procedures

NOTE: All procedures below are presented as PDF files. If you need a reader for these files, you should download the free Adobe Reader.

NOT FOR NAVIGATION. Please procure official charts for flight.
FAA instrument procedures published for use from 10 October 2019 at 0901Z to 7 November 2019 at 0900Z.

 
IAPs - Instrument Approach Procedures
RNAV (GPS) RWY 09   download (158KB)
RNAV (GPS) RWY 27   download (166KB)
NOTE: Special Take-Off Minimums/Departure Procedures apply   download (116KB)

Other nearby airports with instrument procedures:

F88 - Jonesboro Airport (15 nm N)
KIER - Natchitoches Regional Airport (26 nm SW)
0R7 - The Red River Airport (33 nm W)
KRSN - Ruston Regional Airport (33 nm N)
KAEX - Alexandria International Airport (39 nm S)
 
Loc | Ops | Rwys | IFR | FBO | Links
Com | Nav | Svcs | Stats | Notes
Area around 0R5 (David G Joyce Airport)
 
Road maps at: MapQuest Bing Google
 
Aerial photo
WARNING: Photo may not be current or correct
Aerial photo of 0R5 (David G Joyce Airport)
Photo by Gene Greenlees, MD
Taken in June 2010

Do you have a better or more recent aerial photo of David G Joyce Airport that you would like to share? If so, please send us your photo.

 
Sectional chart

 
Airport distance calculator
Flying to David G Joyce Airport? Find the distance to fly.

From to 0R5

Sunrise and sunset
Times for 18-Oct-2019
 Local
(UTC-5)
 Zulu
(UTC)
Morning civil twilight06:5311:53
Sunrise07:1712:17
Sunset18:3423:34
Evening civil twilight18:5923:59

Current date and time
Zulu (UTC)  19-Oct-2019 00:32:54
Local (UTC-5)  18-Oct-2019 19:32:54
 
METAR
KIER 
26nm SW 
190015Z AUTO 08003KT 10SM CLR 19/10 A2979 RMK AO2 T01850097
KRSN 
33nm N 
190015Z AUTO 00000KT 10SM CLR 15/09 A2985 RMK AO2 T01540092
KAEX 
38nm S 
182353Z 06004KT 10SM CLR 18/10 A2978 RMK AO2 SLP088 T01780100 10244 20172 55005
KESF 
39nm SE 
182353Z AUTO 00000KT 10SM CLR 16/12 A2979 RMK AO2 SLP087 T01560117 10239 20156 56007
KAQV 
44nm SW 
182358Z AUTO 00000KT 10SM CLR 17/11 A2977 RMK AO2 SLP080 T01670111 10250 20167 58007
KMLU 
46nm NE 
182353Z 06004KT 10SM CLR 16/08 A2983 RMK AO2 SLP100 T01560083 10228 20156 56012
TAF
KAEX 
38nm S 
181722Z 1818/1918 07008KT P6SM FEW150 FM190100 VRB03KT P6SM SKC
KMLU 
46nm NE 
181720Z 1818/1918 08006KT P6SM SCT180 SCT250 FM190000 VRB03KT P6SM SKC FM191500 VRB04KT P6SM SCT120
NOTAMs
Click for the latest NOTAMs
NOTAMs are issued by the DoD/FAA and will open in a separate window not controlled by AirNav.

 

 
 

Would you like to see your business listed on this page?

 If your business provides an interesting product or service to pilots, flight crews, aircraft, or users of the David G Joyce Airport, you should consider listing it here.  To start the listing process, click on the button below
 
Add a business
 

Other Pages about David G Joyce Airport

Update a link
 
Copyright © AirNav, LLC. All rights reserved. Privacy Policy  Contact